ASIASTAR

Last updated on Mon Oct 14 2024 00:02:37 GMT+0000 (Coordinated Universal Time)

1 26107U 00016A 24287.35591304 -.00000330 00000+0 00000+0 0 9991 2 26107 7.6848 64.3863 0004912 144.9967 46.1932 1.00272660 89788
UTC large
Height (km)
Speed (km/s)
/
Latitude / Longitude
Inclination (degrees)
Orbital Period (minutes)
Azimuth
Elevation
Range (km)
Doppler Factor

Next 0 passes for location: London (51.5072 / 0.1276)

Sorry there are no passes over London.